Lid_Strength_Index
3 3 3 3 3 3 2 2 2 2 2 2 2 2 2 2 2 2 2 2 2 2 2 3 3 3 5 9 9 2 -1 1 3 3 6 7 10 11 13 12 11 13 12 10 10 10 10
3 3 3 3 3 3 3 3 3 3 3 3 3 3 3 3 3 3 3 3 3 2 2 3 3 4 7 12 6 3 2 3 5 6 7 8 9 9 11 12 13 12 12 11 11 10 11
3 3 3 3 3 3 3 3 3 3 3 3 3 3 3 3 3 3 3 3 3 2 2 2 3 5 9 10 5 3 4 5 5 6 8 7 7 10 10 12 10 11 14 13 12 12 12
3 3 4 4 4 4 3 3 3 3 3 3 3 4 4 3 3 3 3 3 3 2 2 2 3 6 11 5 5 6 5 5 5 5 6 6 6 9 10 10 11 13 15 18 13 11 11
4 4 4 4 4 4 4 3 3 3 3 3 4 4 4 4 4 3 3 3 3 3 2 2 6 9 12 5 10 7 7 7 6 6 6 5 7 10 11 14 17 16 18 17 15 12 15
4 4 4 4 4 4 4 4 4 4 4 4 4 4 4 4 4 3 3 3 3 5 5 4 6 12 11 13 10 9 10 8 7 8 8 9 11 13 14 15 20 20 19 17 17 16 17
5 4 4 4 5 4 4 4 4 4 4 4 4 4 4 4 4 4 8 10 12 13 10 12 11 11 10 11 10 11 10 11 10 11 15 12 15 21 20 19 19 19 21 22 20 17 19
5 4 5 5 5 5 5 5 5 4 4 5 5 5 5 5 5 6 10 12 12 12 13 10 10 12 11 11 14 13 11 15 14 16 17 18 22 18 18 19 19 21 23 24 20 19 19
5 5 5 5 5 5 5 5 5 5 5 5 5 5 5 5 5 11 12 12 10 10 13 12 12 13 13 13 16 16 14 15 16 18 19 21 20 18 19 21 22 21 23 23 23 20 18
5 5 5 5 5 5 6 6 5 5 5 5 6 5 5 5 11 12 14 11 10 9 18 15 14 14 13 12 18 15 14 16 18 20 19 20 17 19 21 22 21 24 20 21 21 22 25
5 5 5 6 6 6 6 6 6 6 5 5 6 6 5 8 14 15 14 12 9 10 24 15 14 12 13 17 16 17 15 16 21 21 20 21 21 21 22 22 20 23 20 21 21 22 22
6 6 6 6 6 6 6 6 6 6 6 6 6 6 6 12 14 14 13 10 10 18 25 19 16 18 18 17 17 17 18 16 17 19 20 20 18 20 21 20 20 19 21 21 20 20 27
6 6 6 6 6 6 6 6 6 6 6 6 6 6 8 12 15 13 11 11 19 22 18 20 20 19 20 21 20 19 21 23 24 25 25 21 21 19 19 21 19 19 22 27 28 28 23
7 6 7 7 7 7 7 7 7 6 6 6 6 7 8 12 13 13 11 17 22 20 22 18 19 20 22 22 22 21 21 24 22 23 25 26 28 22 19 20 21 20 18 23 28 26 24
7 7 7 7 7 7 7 7 7 6 6 6 8 10 14 14 13 12 16 22 23 22 20 21 20 23 23 22 23 23 24 24 22 22 26 27 26 20 18 17 17 18 19 14 18 18 21
7 7 7 7 7 7 7 7 7 7 6 7 14 13 15 13 13 15 19 21 21 19 19 20 24 22 25 24 25 25 24 22 21 20 21 24 27 20 18 15 14 15 13 19 16 25 24
7 7 7 7 7 8 8 8 7 7 6 7 14 16 14 13 14 17 22 22 20 18 18 21 22 23 25 25 25 25 24 21 20 20 20 21 23 21 17 18 19 17 18 15 15 15 21
8 8 7 7 8 8 8 8 8 7 6 11 16 19 13 14 19 21 22 20 17 19 19 19 20 22 24 24 24 24 23 22 19 20 22 20 20 23 19 15 14 16 18 17 18 19 17
8 7 8 8 8 8 8 8 8 7 7 15 18 18 15 16 22 23 21 20 20 20 20 20 21 21 22 24 25 23 22 18 18 18 20 19 22 24 20 17 16 18 15 15 14 13 19
8 8 8 8 8 8 8 8 8 7 6 15 19 21 19 19 21 22 22 21 21 19 20 20 21 21 22 23 22 23 22 18 17 17 13 14 17 20 23 19 15 18 17 16 17 21 23
8 8 8 8 8 9 9 9 9 8 9 15 19 21 20 23 22 22 22 21 23 23 20 20 21 22 22 24 23 23 21 20 17 14 15 15 19 19 17 17 15 16 17 17 18 19 22
8 9 8 8 9 9 9 9 9 9 10 17 20 20 20 21 21 23 22 23 22 21 21 22 22 21 22 23 23 24 21 21 19 16 16 15 18 17 18 15 16 18 16 16 17 17 17
8 9 9 9 9 9 9 9 9 9 12 17 18 18 19 21 23 23 24 22 22 21 20 19 21 22 22 20 19 19 18 17 16 17 17 17 18 19 20 16 17 20 18 17 17 17 18
8 9 9 9 9 9 9 9 9 9 12 16 17 19 21 22 22 21 21 21 21 21 22 20 20 22 19 17 18 18 19 16 15 15 14 17 19 18 21 19 27 19 14 14 16 16 17
8 9 9 9 9 9 9 9 9 9 10 15 16 18 20 23 21 21 21 21 21 21 21 20 19 19 18 20 20 22 21 18 17 15 16 15 20 20 22 23 20 18 17 17 18 18 16
8 9 9 9 9 9 9 9 9 9 10 15 15 15 18 20 22 20 21 22 24 25 23 20 18 17 18 19 20 24 25 21 20 18 14 13 16 21 21 25 25 21 16 14 15 22 16
8 9 9 9 9 9 9 9 9 9 10 13 14 14 17 21 19 20 21 22 20 23 24 21 20 20 19 21 21 23 22 18 21 20 19 18 19 22 22 26 23 17 15 15 23 22 15
8 8 8 9 9 9 9 9 10 9 10 13 15 13 17 20 19 17 17 20 20 21 25 20 22 20 21 23 23 23 22 20 22 20 20 23 25 24 22 24 26 15 16 21 19 15 15
7 8 8 9 9 9 9 9 9 9 9 12 16 13 14 18 18 16 17 17 16 16 18 20 21 21 20 23 25 23 20 22 22 24 17 23 22 25 23 20 16 14 15 14 14 15 15